Flag for India Weather past 2 weeks in Wardha, Maharashtra, India

Now
81 °F

Haze.


Feels Like: 83 °F
Forecast: 70 / 96 °F
Wind: 2 mph from Southeast

Location: Nagpur Sonegaon

Current Time: Oct 2, 2014 at 8:31:11 PM

Latest Report: Oct 2, 2014 at 7:40 PM


Visibility: 3 mi

Pressure: 29.86 "Hg

Humidity: 66%

Dew point: 68 °F

Location of WardhaLocation

Historic Weather in Wardha — Graph

°F

Wardha temperature yesterday

Maximum temperature yesterday: 99 °F (at 1:40 PM)
Minimum temperature yesterday: 70 °F (at 4:10 AM)
Average temperature yesterday: 85 °F

Past Weeks' High & Low Weather Summary

 TemperatureHumidityPressure
High99 °F (Sep 27, 3:10 PM)94% (Sep 23, 4:10 AM)30.01 "Hg (Sep 23, 4:10 AM)
Low70 °F (Sep 30, 5:40 AM)34% (Oct 2, 1:10 PM)29.62 "Hg (Sep 20, 2:40 PM)
Average84 °F66%29.83 "Hg
* Reported Sep 17 7:10 PM — Oct 2 7:10 PM, Wardha, Weather by CustomWeather, © 2014

Note: Actual official high and low records may vary slightly from our data, if they occured in-between our weather recording intervals... More about our weather records

Advertising

Wardha weather history for previous 24 hours

 ConditionsComfort  
Time TempWeatherWind HumidityBarometerVisibility
7:10 PM
Oct 2
84 °FHaze.2 mph62%29.86 "Hg3 mi
6:40 PM84 °FHaze.3 mph62%29.83 "Hg3 mi
5:10 PM93 °FPassing clouds.3 mph49%29.83 "Hg4 mi
4:40 PM93 °FPassing clouds.3 mph47%29.83 "Hg4 mi
4:10 PM95 °FPassing clouds.5 mph44%29.83 "Hg4 mi
3:40 PM95 °FPassing clouds.5 mph44%29.83 "Hg4 mi
3:10 PM97 °FPassing clouds.2 mph42%29.83 "Hg4 mi
2:40 PM97 °FPassing clouds.2 mph42%29.83 "Hg4 mi
2:10 PM99 °FPassing clouds.2 mph35%29.86 "Hg4 mi
1:40 PM99 °FScattered clouds.3 mph35%29.86 "Hg4 mi
1:10 PM97 °FScattered clouds.3 mph34%29.89 "Hg4 mi
12:40 PM97 °FPassing clouds.2 mph39%29.89 "Hg4 mi
12:10 PM97 °FPassing clouds.2 mph42%29.92 "Hg4 mi
11:40 AM95 °FClear.No wind44%29.95 "Hg4 mi
10:40 AM91 °FClear.3 mph49%29.95 "Hg4 mi
10:10 AM91 °FClear.No wind52%29.98 "Hg2 mi
9:40 AM90 °FClear.No wind52%29.98 "Hg4 mi
9:10 AM86 °FPassing clouds.No wind59%29.98 "Hg4 mi
8:40 AM84 °FPassing clouds.2 mph62%29.98 "Hg4 mi
8:10 AM81 °FPassing clouds.2 mph66%29.98 "Hg4 mi
6:10 AM75 °FHaze.2 mph69%29.92 "Hg2 mi
5:40 AM75 °FPassing clouds.2 mph69%29.92 "Hg2 mi
4:10 AM73 °FPassing clouds.2 mph78%29.89 "Hg2 mi
3:10 AM73 °FPassing clouds.2 mph78%29.89 "Hg2 mi
2:10 AM73 °FPassing clouds.3 mph78%29.92 "Hg2 mi
12:10 AM79 °FPassing clouds.3 mph70%29.92 "Hg2 mi
11:10 PM
Oct 1
81 °FPassing clouds.3 mph66%29.95 "Hg2 mi
10:40 PM81 °FHaze.2 mph70%N/A3 mi
10:10 PM82 °FPassing clouds.2 mph62%29.95 "Hg3 mi
9:40 PM82 °FPassing clouds.2 mph62%29.95 "Hg3 mi
8:40 PM81 °FPassing clouds.No wind66%29.92 "Hg3 mi
Weather by CustomWeather, © 2014

See weather overviewHow to use our weather pages